Погода в Борках

Украина / Харьковская область     49°41′25″N   36°02′29″E
темп.,
°C
ветер,
м/с
пор.,
м/с
влажн.,
%
обл.,
%
осадки,
мм/ч
давл.,
гПа
погр.,
м
24 мая, вт
вт2400:00+7с22755 0.0 101010
03:00+6сз227622 0.0 101110
06:00+7зсз23765 0.0 101164
09:00+13зсз35585 0.0 1011712
12:00+16сз454396 0.2 10112371
15:00+16з5549100 0.2 10111865
18:00+15з5757100 0.0 1012548
21:00+10зсз34705 0.0 101349
25 мая, ср
ср2500:00+8зсз228559 0.0 101526
03:00+7зсз34915 0.0 101651
06:00+8зсз35785 0.0 1016112
09:00+14зсз56625 0.0 1017623
12:00+18сз67455 0.0 10171950
15:00+19ссз574169 0.0 10172612
18:00+17зсз586069 0.0 1017685
21:00+12з337595 0.0 101833
26 мая, чт
чт2600:00+13зюз2363100 0.0 101854
03:00+12зюз3564100 0.0 101898
06:00+11юз387598 0.0 1017158
09:00+16ююз6960100 0.0 1016530
12:00+19юз81356100 0.0 10141907
15:00+11ююз91688100 2.4 1015941
18:00+12юз71393100 0.3 1013622
21:00+13зюз48940 0.3 1014209
27 мая, пт
пт2700:00+11юз499421 0.0 1014151
03:00+10зюз5119375 0.0 1013205
06:00+11зюз513905 0.0 1013288
09:00+17з710717 0.0 1013850
12:00+18з7106638 0.6 10131396
15:00+20зсз7105695 1.1 10132002
18:00+19з510665 0.1 10121602
21:00+14юз467812 0.2 101376
28 мая, сб
сб2800:00+13юз410845 0.0 1011174
03:00+13ююз615794 0.0 1009328
06:00+15зюз81783100 0.1 1009845
09:00+14зсз4895100 3.3 1009520
12:00+15зсз687422 1.8 1011727
15:00+17з695873 1.8 10111284
18:00+16з4868100 0.0 1011382
21:00+14юз3674100 0.0 1013144